Regional Weather Roundup
Issued by NWS

Home | Current Version | Previous Version | Text Only | Print | Product List | Glossary On
Versions: 1 2 3 4 5 6 7 8 9 10 11 12 13 14 15 16 17 18 19 20 21 22 23 24 25 26 27 28 29 30
000
ASUS45 KBOU 211507
RWRCO

WEATHER ROUNDUP FOR COLORADO
NATIONAL WEATHER SERVICE DENVER/BOULDER CO
900 AM MDT TUE OCT 21 2014

NOTE: "FAIR" INDICATES FEW OR NO CLOUDS BELOW 12000 FEET WITH NO
SIGNIFICANT WEATHER AND/OR OBSTRUCTIONS TO VISIBILITY.

COZ001>005-013-030-031-211600-
...NORTHWEST COLORADO...

CITY           SKY/WX    TMP DP  RH WIND       PRES   REMARKS
CRAIG          CLOUDY    42  38  85 CALM      30.11S
HAYDEN         NOT AVBL
MEEKER         MOSUNNY   50  39  66 CALM      30.12R
MOUNT WERNER   NOT AVBL
STEAMBOAT SPGS CLOUDY    41  37  85 CALM      30.15S
WALDEN         MOSUNNY   37  32  81 CALM      30.19S
$$

COZ006>008-011-211600-
...WEST CENTRAL VALLEYS...

CITY           SKY/WX    TMP DP  RH WIND       PRES   REMARKS
GRAND JUNCTION PTSUNNY   56  38  50 E14       30.06R
MONTROSE       CLOUDY    52  40  63 SE7       30.14R
EAGLE          PTSUNNY   43  39  87 CALM      30.21R
RIFLE          CLOUDY    46  39  76 CALM      30.12R
DELTA          CLOUDY    56  43  61 NE6       30.12R
NUCLA          CLOUDY    52  39  62 CALM      30.17R
$$

COZ017>023-064>068-211600-
...SOUTHWEST COLORADO...

CITY           SKY/WX    TMP DP  RH WIND       PRES   REMARKS
DURANGO        CLOUDY    49  46  90 E3        30.21R
CORTEZ         SUNNY     57  43  59 CALM      30.15R
PAGOSA SPRINGS CLOUDY    46  45  95 CALM      30.26R
TELLURIDE      CLOUDY    48  38  68 CALM      30.29R
WOLF CREEK PAS FOG       32  32 100 SW5       30.41R VSB 1   WCI  27
$$

COZ009-010-012-014-032>034-037-058>063-211600-
...CENTRAL COLORADO...

CITY           SKY/WX    TMP DP  RH WIND       PRES   REMARKS
ASPEN          PTSUNNY   45  34  65 S5        30.20S
BUENA VISTA    PTSUNNY   44  33  66 CALM      30.25S
COPPER MTN     MOSUNNY   43  30  61 S10       30.41R
BERTHOUD PASS  FAIR      32  30  93 NW10      30.43R WCI  24
COTTONWOOD PAS CLOUDY    46  34  61 CALM      30.31S
GUNNISON       CLOUDY    37  30  75 CALM      30.27R
KREMMLING      MOSUNNY   34  32  93 CALM        N/A
LEADVILLE      CLOUDY    33  31  92 N3        30.31R
MONARCH PASS   CLOUDY    36  32  87 SW8       30.50R
SALIDA         MOSUNNY   45  34  65 N7        30.31S
SUNLIGHT       PTSUNNY   41  36  81 CALM      30.33S
WILKERSON PASS NOT AVBL
$$

COZ069>075-211600-
...SAN LUIS VALLEY/SANGRE DE CRISTO MOUNTAINS...

CITY           SKY/WX    TMP DP  RH WIND       PRES   REMARKS
ALAMOSA        SUNNY     43  34  70 CALM      30.25R
LA VETA PASS   PTSUNNY   39  37  93 S9        30.32R
SAGUACHE       MOSUNNY   43  32  65 NW9       30.28R
$$

COZ035-036-038>040-211600-
...NORTHERN COLORADO FRONT RANGE...

CITY           SKY/WX    TMP DP  RH WIND       PRES   REMARKS
DENVER INTL AP MOSUNNY   61  38  42 SW12      30.04R
DMNS CITY PARK   N/A     59  37  44 S8        30.04S
AURORA         MOSUNNY   60  37  43 S14       30.06R
FRONT RANGE AP NOT AVBL
ERIE MUNI ARPT SUNNY     51  43  76 CALM      30.03R
BOULDER MUN AP SUNNY     50  39  66 CALM      30.03S
CENTENNIAL     PTSUNNY   59  37  44 SW6       30.07R
BROOMFIELD     PTSUNNY   57  36  44 CALM      30.05R
FORT COLLINS   SUNNY     50  39  66 CALM      30.04S
LONGMONT       SUNNY     50  42  72 CALM      30.04S
$$

COZ041-046-047-076>085-087-088-211600-
...PIKES PEAK/PALMER DIVIDE AND SOUTHERN FOOTHILLS...

CITY           SKY/WX    TMP DP  RH WIND       PRES   REMARKS
COLO. SPRINGS  MOSUNNY   56  43  61 SE7       30.13R
A. F. ACADEMY  SUNNY     49  38  68 N5        30.13S
ELLICOTT       SUNNY     54  43  66 S7        30.11R
FALCON         SUNNY     59  38  44 CALM      30.15S
FORT CARSON    SUNNY     53  40  62 SE3       30.11R
LIMON          SUNNY     46  46 100 SE3       30.09S
MONUMENT HILL  SUNNY     55  34  44 SW7       30.13S
TRINIDAD       SUNNY     59  42  53 NW5       30.13S
$$

COZ042>045-048>051-090-091-211600-
...NORTHEAST COLORADO...

CITY           SKY/WX    TMP DP  RH WIND       PRES   REMARKS
GREELEY ARPT   SUNNY     46  36  66 N3        30.03F
AKRON          SUNNY     57  47  69 S9        30.02R
BURLINGTON     SUNNY     58  53  84 S16       30.07R
WRAY           SUNNY     60  52  73 MISG      30.03R
STERLING       SUNNY     54  50  87 CALM      30.00R
HOLYOKE        SUNNY     59  52  77 S9        30.02R
FORT MORGAN    SUNNY     49  40  71 W10       30.02S
$$

COZ086-089-092>099-211600-
...SOUTHEAST COLORADO...

CITY           SKY/WX    TMP DP  RH WIND       PRES   REMARKS
PUEBLO         SUNNY     50  42  74 CALM      30.09R
LA JUNTA       SUNNY     53  44  71 W8        30.08R
LAMAR          SUNNY     52  48  86 CALM      30.06R FOG
SPRINGFIELD      N/A     59  51  75 SW5       30.11R
$$


USA.gov is the U.S. government's official web portal to all federal, state and local government web resources and services.